Flag for U.S.A. Weather past 2 weeks in Birmingham, Alabama, U.S.A.

Now
36 °F

Partly sunny.


Feels Like: 36 °F
Forecast: 34 / 51 °F
Wind: No wind

Location: Birmingham International Airport

Current Time: Dec 18, 2014 at 7:50:34 AM

Latest Report: Dec 18, 2014 at 6:53 AM


Visibility: 7 mi

Pressure: 30.24 "Hg

Humidity: 89%

Dew point: 33 °F

Location of BirminghamLocation

Historic Weather in Birmingham — Graph

°F

Birmingham temperature yesterday

Maximum temperature yesterday: 45 °F (at 2:53 PM)
Minimum temperature yesterday: 33 °F (at 3:53 AM)
Average temperature yesterday: 39 °F

Past Weeks' High & Low Weather Summary

 TemperatureHumidityPressure
High75 °F (Dec 4, 1:53 PM)96% (Dec 3, 6:53 AM)30.41 "Hg (Dec 3, 6:53 AM)
Low28 °F (Dec 11, 12:53 AM)27% (Dec 12, 2:53 PM)29.93 "Hg (Dec 15, 11:53 PM)
Average48 °F72%30.23 "Hg
* Reported Dec 3 6:53 AM — Dec 18 6:53 AM, Birmingham, Weather by CustomWeather, © 2014

Note: Actual official high and low records may vary slightly from our data, if they occured in-between our weather recording intervals... More about our weather records

Advertising

Birmingham weather history for previous 24 hours

 ConditionsComfort  
Time TempWeatherWind HumidityBarometerVisibility
6:53 AM
Dec 18
36 °FPartly sunny.No wind89%30.24 "Hg7 mi
5:53 AM34 °FPassing clouds.3 mph88%30.24 "Hg8 mi
4:53 AM34 °FPassing clouds.No wind88%30.24 "Hg9 mi
3:53 AM34 °FPassing clouds.No wind92%30.22 "Hg9 mi
2:53 AM34 °FPassing clouds.5 mph88%30.23 "Hg9 mi
1:53 AM35 °FPassing clouds.No wind88%30.20 "Hg10 mi
12:53 AM37 °FPassing clouds.No wind86%30.21 "Hg10 mi
11:53 PM
Dec 17
38 °FPassing clouds.No wind83%30.21 "Hg10 mi
10:53 PM39 °FPassing clouds.No wind82%30.22 "Hg10 mi
9:53 PM39 °FClear.5 mph82%30.24 "Hg10 mi
8:53 PM37 °FClear.No wind86%30.23 "Hg10 mi
7:53 PM37 °FClear.No wind89%30.24 "Hg9 mi
6:53 PM38 °FPassing clouds.No wind86%30.25 "Hg10 mi
5:53 PM39 °FPassing clouds.5 mph82%30.25 "Hg10 mi
4:53 PM41 °FPassing clouds.3 mph76%30.24 "Hg10 mi
3:53 PM45 °FPartly sunny.5 mph71%30.24 "Hg10 mi
2:53 PM45 °FOvercast.8 mph68%30.23 "Hg10 mi
1:53 PM44 °FOvercast.7 mph73%30.23 "Hg10 mi
12:53 PM43 °FOvercast.6 mph76%30.24 "Hg10 mi
11:53 AM43 °FOvercast.7 mph76%30.28 "Hg10 mi
10:53 AM42 °FOvercast.6 mph79%30.30 "Hg10 mi
9:53 AM42 °FOvercast.8 mph82%30.32 "Hg10 mi
8:53 AM40 °FOvercast.6 mph86%30.30 "Hg10 mi
7:53 AM39 °FOvercast.No wind89%30.29 "Hg10 mi
Weather by CustomWeather, © 2014

See weather overviewHow to use our weather pages